2016-11-03 00:03:18 r, 20.15m,0000000001Hz,0000625069c,0000001.356s, 016.1C,00002191
2016-11-03 00:13:18 r, 20.15m,0000000000Hz,0000627044c,0000001.361s, 016.1C,00002191
2016-11-03 00:23:18 r, 20.05m,0000000001Hz,0000570382c,0000001.238s, 016.1C,00002191
2016-11-03 00:33:18 r, 20.00m,0000000001Hz,0000542560c,0000001.177s, 016.1C,00002191
2016-11-03 00:43:18 r, 19.96m,0000000001Hz,0000527102c,0000001.144s, 016.1C,00002191
2016-11-03 00:53:18 r, 20.01m,0000000000Hz,0000552086c,0000001.198s, 016.1C,00002191
2016-11-03 01:03:18 r, 20.01m,0000000001Hz,0000549116c,0000001.192s, 015.7C,00002191
2016-11-03 01:13:18 r, 19.98m,0000000000Hz,0000534937c,0000001.161s, 015.7C,00002191
2016-11-03 01:23:18 r, 20.03m,0000000001Hz,0000560379c,0000001.216s, 015.7C,00002191
2016-11-03 01:33:18 r, 20.03m,0000000001Hz,0000564328c,0000001.225s, 015.7C,00002191
2016-11-03 01:43:18 r, 20.03m,0000000001Hz,0000557620c,0000001.210s, 015.7C,00002191
2016-11-03 01:53:18 r, 20.07m,0000000000Hz,0000585487c,0000001.271s, 015.7C,00002191
2016-11-03 02:03:18 r, 20.16m,0000000000Hz,0000632580c,0000001.373s, 015.7C,00002191
2016-11-03 02:13:18 r, 20.35m,0000000001Hz,0000753282c,0000001.635s, 015.7C,00002191
2016-11-03 02:23:18 r, 20.32m,0000000001Hz,0000725549c,0000001.575s, 015.7C,00002191
2016-11-03 02:33:18 r, 20.29m,0000000001Hz,0000710095c,0000001.541s, 015.7C,00002191
2016-11-03 02:43:19 r, 20.29m,0000000001Hz,0000709427c,0000001.540s, 015.4C,00002191
2016-11-03 02:53:18 r, 20.28m,0000000000Hz,0000707367c,0000001.535s, 015.4C,00002191
2016-11-03 03:03:18 r, 20.21m,0000000001Hz,0000663547c,0000001.440s, 015.4C,00002191
2016-11-03 03:13:18 r, 20.38m,0000000001Hz,0000772521c,0000001.676s, 015.4C,00002191
2016-11-03 03:23:18 r, 20.39m,0000000001Hz,0000782150c,0000001.697s, 015.1C,00002191
2016-11-03 03:33:18 r, 20.33m,0000000000Hz,0000734186c,0000001.593s, 014.8C,00002191
2016-11-03 03:43:18 r, 20.32m,0000000000Hz,0000727508c,0000001.579s, 014.8C,00002191
2016-11-03 03:53:18 r, 20.48m,0000000000Hz,0000835905c,0000001.814s, 014.5C,00002191
2016-11-03 04:03:18 r, 20.60m,0000000001Hz,0000939416c,0000002.039s, 014.5C,00002191
2016-11-03 04:13:18 r, 20.65m,0000000000Hz,0000976143c,0000002.118s, 014.1C,00002191
2016-11-03 04:23:18 r, 20.69m,0000000001Hz,0001016488c,0000002.206s, 013.8C,00002191
2016-11-03 04:33:18 r, 20.73m,0000000001Hz,0001057935c,0000002.296s, 013.5C,00002191
2016-11-03 04:43:18 r, 20.54m,0000000001Hz,0000888787c,0000001.929s, 013.2C,00002191
2016-11-03 04:53:18 r, 20.46m,0000000001Hz,0000822565c,0000001.785s, 013.2C,00002191
2016-11-03 05:03:18 r, 20.51m,0000000001Hz,0000860651c,0000001.868s, 013.5C,00002191
2016-11-03 05:13:18 r, 20.55m,0000000000Hz,0000895816c,0000001.944s, 013.5C,00002191
2016-11-03 05:23:18 r, 20.59m,0000000000Hz,0000928593c,0000002.015s, 013.5C,00002191
2016-11-03 05:33:18 r, 20.64m,0000000000Hz,0000974271c,0000002.114s, 013.8C,00002191
2016-11-03 05:43:18 r, 20.69m,0000000001Hz,0001017424c,0000002.208s, 013.5C,00002191
2016-11-03 05:53:18 r, 20.64m,0000000001Hz,0000974239c,0000002.114s, 013.5C,00002191
2016-11-03 06:03:18 r, 20.65m,0000000001Hz,0000982893c,0000002.133s, 013.8C,00002191
2016-11-03 06:13:18 r, 20.72m,0000000001Hz,0001040887c,0000002.259s, 013.5C,00002191
2016-11-03 06:23:18 r, 20.74m,0000000000Hz,0001069488c,0000002.321s, 013.5C,00002191
2016-11-03 06:33:18 r, 20.74m,0000000000Hz,0001066045c,0000002.313s, 013.8C,00002191
2016-11-03 06:43:18 r, 20.00m,0000000001Hz,0000546972c,0000001.187s, 013.8C,00002191
2016-11-03 06:53:18 r, 20.60m,0000000001Hz,0000940320c,0000002.041s, 013.8C,00002191
2016-11-03 07:03:18 r, 20.08m,0000000001Hz,0000587605c,0000001.275s, 013.8C,00002191
2016-11-03 07:13:18 r, 19.08m,0000000002Hz,0000231606c,0000000.503s, 013.8C,00002191
2016-11-03 07:23:18 r, 17.60m,0000000008Hz,0000060132c,0000000.130s, 013.8C,00002191
2016-11-03 07:33:18 r, 15.86m,0000000038Hz,0000012082c,0000000.026s, 014.1C,00002191
2016-11-03 07:43:18 r, 14.01m,0000000210Hz,0000000000c,0000000.000s, 014.1C,00002191
2016-11-03 07:53:18 r, 11.96m,0000001388Hz,0000000000c,0000000.000s, 014.1C,00002191
2016-11-03 08:03:18 r, 10.02m,0000008358Hz,0000000000c,0000000.000s, 014.1C,00002191
2016-11-03 08:13:18 r, 08.49m,0000034245Hz,0000000000c,0000000.000s, 014.1C,00002191
2016-11-03 08:23:18 r, 07.36m,0000096352Hz,0000000000c,0000000.000s, 014.5C,00002191
2016-11-03 08:33:18 r, 06.52m,0000208623Hz,0000000000c,0000000.000s, 014.1C,00002191
2016-11-03 08:43:18 r, 06.05m,0000323359Hz,0000000000c,0000000.000s, 014.1C,00002191
2016-11-03 08:53:18 r, 00.00m,0000488281Hz,0000000000c,0000000.000s, 014.1C,00002191
2016-11-03 09:03:18 r, 00.00m,0000597216Hz,0000000000c,0000000.000s, 014.5C,00002191
2016-11-03 09:13:18 r, 00.00m,0000597165Hz,0000000000c,0000000.000s, 014.8C,00002191
2016-11-03 09:23:18 r, 00.00m,0000597198Hz,0000000000c,0000000.000s, 014.8C,00002191
2016-11-03 09:33:18 r, 00.00m,0000597212Hz,0000000000c,0000000.000s, 015.1C,00002191
2016-11-03 09:43:18 r, 00.00m,0000597163Hz,0000000000c,0000000.000s, 015.1C,00002191
2016-11-03 09:53:18 r, 00.00m,0000597117Hz,0000000000c,0000000.000s, 015.4C,00002191
2016-11-03 10:03:18 r, 00.00m,0000597089Hz,0000000000c,0000000.000s, 015.7C,00002191
2016-11-03 10:13:18 r, 00.00m,0000597039Hz,0000000000c,0000000.000s, 015.7C,00002191
2016-11-03 10:23:18 r, 00.00m,0000597027Hz,0000000000c,0000000.000s, 016.4C,00002191
2016-11-03 10:33:18 r, 00.00m,0000596980Hz,0000000000c,0000000.000s, 016.7C,00002191
2016-11-03 10:43:18 r, 00.00m,0000596957Hz,0000000000c,0000000.000s, 016.7C,00002191
2016-11-03 10:53:18 r, 00.00m,0000596839Hz,0000000000c,0000000.000s, 017.4C,00002191
2016-11-03 11:03:18 r, 00.00m,0000596900Hz,0000000000c,0000000.000s, 017.7C,00002191
2016-11-03 11:13:20 r, 00.00m,0000596774Hz,0000000000c,0000000.000s, 018.0C,00002191
2016-11-03 11:23:18 r, 00.00m,0000596764Hz,0000000000c,0000000.000s, 018.3C,00002191
2016-11-03 11:33:18 r, 00.00m,0000596715Hz,0000000000c,0000000.000s, 019.0C,00002191
2016-11-03 11:43:18 r, 00.00m,0000596684Hz,0000000000c,0000000.000s, 019.3C,00002191
2016-11-03 11:53:18 r, 00.00m,0000596737Hz,0000000000c,0000000.000s, 019.6C,00002191
2016-11-03 12:03:18 r, 00.00m,0000596638Hz,0000000000c,0000000.000s, 019.6C,00002191
2016-11-03 12:13:18 r, 00.00m,0000596639Hz,0000000000c,0000000.000s, 020.3C,00002191
2016-11-03 12:23:18 r, 00.00m,0000596590Hz,0000000000c,0000000.000s, 020.6C,00002191
2016-11-03 12:33:18 r, 00.00m,0000596600Hz,0000000000c,0000000.000s, 020.9C,00002191
2016-11-03 12:43:18 r, 00.00m,0000596584Hz,0000000000c,0000000.000s, 021.2C,00002191
2016-11-03 12:53:18 r, 00.00m,0000596493Hz,0000000000c,0000000.000s, 021.2C,00002191
2016-11-03 13:03:18 r, 00.00m,0000596413Hz,0000000000c,0000000.000s, 021.2C,00002191
2016-11-03 13:13:18 r, 00.00m,0000596319Hz,0000000000c,0000000.000s, 021.9C,00002191
2016-11-03 13:23:18 r, 00.00m,0000596384Hz,0000000000c,0000000.000s, 022.2C,00002191
2016-11-03 13:33:18 r, 00.00m,0000596256Hz,0000000000c,0000000.000s, 023.2C,00002191
2016-11-03 13:43:18 r, 00.00m,0000596235Hz,0000000000c,0000000.000s, 023.8C,00002191
2016-11-03 13:53:18 r, 00.00m,0000596345Hz,0000000000c,0000000.000s, 023.5C,00002191
2016-11-03 14:03:18 r, 00.00m,0000596303Hz,0000000000c,0000000.000s, 023.5C,00002191
2016-11-03 14:13:18 r, 00.00m,0000596305Hz,0000000000c,0000000.000s, 023.2C,00002191
2016-11-03 14:23:18 r, 00.00m,0000596353Hz,0000000000c,0000000.000s, 022.8C,00002191
2016-11-03 14:33:18 r, 00.00m,0000596407Hz,0000000000c,0000000.000s, 022.2C,00002191
2016-11-03 14:43:18 r, 00.00m,0000596476Hz,0000000000c,0000000.000s, 021.5C,00002191
2016-11-03 14:53:18 r, 00.00m,0000596508Hz,0000000000c,0000000.000s, 021.5C,00002191
2016-11-03 15:03:18 r, 00.00m,0000596447Hz,0000000000c,0000000.000s, 021.9C,00002191
2016-11-03 15:13:18 r, 00.00m,0000596435Hz,0000000000c,0000000.000s, 021.9C,00002191
2016-11-03 15:23:18 r, 00.00m,0000596467Hz,0000000000c,0000000.000s, 022.2C,00002191
2016-11-03 15:33:18 r, 00.00m,0000596473Hz,0000000000c,0000000.000s, 022.2C,00002191
2016-11-03 15:43:18 r, 00.00m,0000596432Hz,0000000000c,0000000.000s, 021.9C,00002191
2016-11-03 15:53:18 r, 00.00m,0000596459Hz,0000000000c,0000000.000s, 021.9C,00002191
2016-11-03 16:03:18 r, 00.00m,0000596535Hz,0000000000c,0000000.000s, 021.9C,00002191
2016-11-03 16:13:18 r, 00.00m,0000596565Hz,0000000000c,0000000.000s, 021.5C,00002191
2016-11-03 16:23:18 r, 00.00m,0000596617Hz,0000000000c,0000000.000s, 021.2C,00002191
2016-11-03 16:33:18 r, 00.00m,0000596661Hz,0000000000c,0000000.000s, 020.9C,00002191
2016-11-03 16:43:18 r, 00.00m,0000596574Hz,0000000000c,0000000.000s, 020.6C,00002191
2016-11-03 16:53:18 r, 00.00m,0000596682Hz,0000000000c,0000000.000s, 020.3C,00002191
2016-11-03 17:03:18 r, 00.00m,0000493315Hz,0000000000c,0000000.000s, 019.9C,00002191
2016-11-03 17:13:18 r, 00.00m,0000421952Hz,0000000000c,0000000.000s, 019.6C,00002191
2016-11-03 17:23:18 r, 00.00m,0000415038Hz,0000000000c,0000000.000s, 019.6C,00002191
2016-11-03 17:33:18 r, 06.16m,0000292551Hz,0000000000c,0000000.000s, 019.3C,00002191
2016-11-03 17:43:18 r, 06.38m,0000236874Hz,0000000000c,0000000.000s, 019.3C,00002191
2016-11-03 17:53:18 r, 07.21m,0000110364Hz,0000000000c,0000000.000s, 019.3C,00002191
2016-11-03 18:03:18 r, 08.20m,0000044341Hz,0000000000c,0000000.000s, 019.3C,00002191
2016-11-03 18:13:18 r, 09.05m,0000020375Hz,0000000000c,0000000.000s, 019.3C,00002191
2016-11-03 18:23:18 r, 10.60m,0000004885Hz,0000000000c,0000000.000s, 019.3C,00002191
2016-11-03 18:33:18 r, 12.85m,0000000614Hz,0000000000c,0000000.000s, 019.3C,00002191
2016-11-03 18:43:18 r, 14.48m,0000000136Hz,0000000000c,0000000.000s, 019.3C,00002191
2016-11-03 18:53:18 r, 16.22m,0000000028Hz,0000016846c,0000000.037s, 019.0C,00002191
2016-11-03 19:03:18 r, 18.14m,0000000005Hz,0000098745c,0000000.214s, 018.6C,00002191
2016-11-03 19:13:18 r, 19.47m,0000000002Hz,0000337873c,0000000.733s, 018.3C,00002191
2016-11-03 19:23:18 r, 20.35m,0000000001Hz,0000746788c,0000001.621s, 017.7C,00002191
2016-11-03 19:33:19 r, 20.68m,0000000000Hz,0001009198c,0000002.190s, 017.0C,00002191
2016-11-03 19:43:18 r, 20.75m,0000000001Hz,0001078953c,0000002.341s, 016.7C,00002191
2016-11-03 19:53:18 r, 20.77m,0000000001Hz,0001104378c,0000002.397s, 016.4C,00002191
2016-11-03 20:03:18 r, 20.77m,0000000001Hz,0001103424c,0000002.395s, 016.4C,00002191
2016-11-03 20:13:18 r, 20.58m,0000000001Hz,0000921658c,0000002.000s, 016.4C,00002191
2016-11-03 20:23:18 r, 20.76m,0000000000Hz,0001082263c,0000002.349s, 016.4C,00002191
2016-11-03 20:33:18 r, 20.82m,0000000001Hz,0001152612c,0000002.501s, 016.7C,00002191
2016-11-03 20:43:18 r, 20.84m,0000000001Hz,0001178497c,0000002.558s, 017.0C,00002191
2016-11-03 20:53:18 r, 20.87m,0000000001Hz,0001206765c,0000002.619s, 017.4C,00002191
2016-11-03 21:03:18 r, 20.88m,0000000000Hz,0001218139c,0000002.644s, 017.4C,00002191
2016-11-03 21:13:18 r, 20.92m,0000000000Hz,0001257896c,0000002.730s, 017.4C,00002191
2016-11-03 21:23:18 r, 20.89m,0000000000Hz,0001221239c,0000002.650s, 017.7C,00002191
2016-11-03 21:33:18 r, 20.92m,0000000000Hz,0001264234c,0000002.744s, 017.7C,00002191
2016-11-03 21:43:18 r, 20.87m,0000000000Hz,0001205594c,0000002.616s, 017.7C,00002191
2016-11-03 21:53:18 r, 20.87m,0000000001Hz,0001205181c,0000002.615s, 017.7C,00002191
2016-11-03 22:03:18 r, 20.85m,0000000000Hz,0001182720c,0000002.567s, 017.7C,00002191
2016-11-03 22:13:18 r, 20.87m,0000000001Hz,0001201024c,0000002.606s, 017.7C,00002191
2016-11-03 22:23:18 r, 20.88m,0000000001Hz,0001212830c,0000002.632s, 017.7C,00002191
2016-11-03 22:33:18 r, 20.87m,0000000000Hz,0001209028c,0000002.624s, 017.7C,00002191
2016-11-03 22:43:18 r, 20.88m,0000000000Hz,0001214640c,0000002.636s, 017.7C,00002191
2016-11-03 22:53:18 r, 20.87m,0000000000Hz,0001201433c,0000002.607s, 017.7C,00002191
2016-11-03 23:03:18 r, 20.85m,0000000001Hz,0001181233c,0000002.563s, 017.7C,00002191
2016-11-03 23:13:18 r, 20.85m,0000000000Hz,0001186620c,0000002.575s, 017.4C,00002191
2016-11-03 23:23:18 r, 20.74m,0000000000Hz,0001067498c,0000002.317s, 017.4C,00002191
2016-11-03 23:33:18 r, 20.86m,0000000001Hz,0001195275c,0000002.594s, 017.4C,00002191
2016-11-03 23:43:18 r, 20.91m,0000000001Hz,0001251603c,0000002.716s, 017.4C,00002191
2016-11-03 23:53:20 r, 20.90m,0000000001Hz,0001243422c,0000002.698s, 017.0C,00002191
